Location: Chena
(64.8152°N, 147.9227°W)
Time: 21:51:11
(UTC+00:00)

Vanguard 2 - Pass Details

Date: 13 March 2021
Orbit: 552 x 2938 km, 32.9° (Epoch: 11 April)

Event Time Altitude Azimuth Distance (km) Brightness Sun altitude
Rises 14:52:54 0° 238° (WSW) 5,467 - -9.6°
Exits shadow 14:55:30 - 229° (SW) 5,240 11.2 -9.3°
Reaches altitude 10° 15:01:11 10° 207° (SSW) 5,098 11.3 -8.7°
Maximum altitude 15:03:58 11° 196° (SSW) 5,202 11.5 -8.5°
Drops below altitude 10° 15:06:53 10° 185° (S) 5,417 11.7 -8.2°
Sets 15:17:18 0° 156° (SSE) 6,757 12.5 -7.1°
